Regional Weather Roundup
Issued by NWS

Home | Current Version | Previous Version | Graphics & Text | Print | Product List | Glossary On
Versions: 1 2 3 4 5 6 7 8 9 10 11 12 13 14 15 16 17 18 19 20 21 22 23 24 25 26 27 28 29 30 31 32 33 34 35 36 37 38 39 40 41 42 43 44 45 46 47 48 49 50
000
ASUS44 KMEG 291210
RWRTN
TENNESSEE HOURLY STATE WEATHER ROUNDUP
NATIONAL WEATHER SERVICE MEMPHIS TN
700 AM CDT SUN MAR 29 2015

TNZ002-004-019-021-049-052-054-088>092-291300-
WEST TENNESSEE

CITY           SKY/WX    TMP DP  RH WIND       PRES   REMARKS
MEMPHIS INTL   PTCLDY    38  23  55 SE8       30.25R WCI  32
NWS MEMPHIS      N/A     35 N/A N/A MISG        N/A
JACKSON        CLEAR     33  19  56 VRB5      30.29R WCI  29
DYERSBURG      CLEAR     34  14  44 SE8       30.29R WCI  27
UNION CITY     CLEAR     28  19  69 SE6       30.28R WCI  22
PARIS          CLEAR     27  14  59 SE7       30.28S WCI  19
LEXINGTON      CLEAR     27  18  69 SE3       30.30R
SAVANNAH       CLEAR     27  19  74 CALM      30.31S
$$

TNZ008-025-027-028-033-062-065-066-291300-
NORTH MIDDLE TENNESSEE

CITY           SKY/WX    TMP DP  RH WIND       PRES   REMARKS
NASHVILLE      PTCLDY    28  18  66 SE6       30.34S WCI  22
CLARKSVILLE    PTCLDY    23  18  81 SE6       30.31S WCI  16
SMYRNA         CLEAR     22  20  92 CALM      30.36S
COOKEVILLE     CLEAR     18  16  93 CALM      30.32S
CROSSVILLE     CLEAR     26  14  60 E5        30.31R WCI  20
$$

TNZ061-075-076-078-094-096-097-291300-
SOUTH MIDDLE TENNESSEE

CITY           SKY/WX    TMP DP  RH WIND       PRES   REMARKS
FAYETTEVILLE   CLEAR     27  12  54 E6        30.31S WCI  20
TULLAHOMA      CLEAR     21  16  79 CALM      30.33R
WINCHESTER     CLEAR     27  16  63 SE5       30.34S WCI  21
MCMINNVILLE    CLEAR     21  18  86 NE24      30.32S SQUALL  WCI   4
COLUMBIA       CLEAR     21  21 100 CALM      30.30R
SHELBYVILLE    CLEAR     25  18  74 E6        30.34S WCI  18
$$

TNZ017-018-042-046-047-291300-
NORTHEAST TENNESSEE

CITY           SKY/WX    TMP DP  RH WIND       PRES   REMARKS
TRI CITIES     CLEAR     20  14  77 CALM      30.37R
ELIZABETHTON   SUNNY     18  12  79 CALM      30.37R
$$

TNZ012-013-036-069-073-074-291300-
CENTRAL EAST TENNESSEE

CITY           SKY/WX    TMP DP  RH WIND       PRES   REMARKS
KNOXVILLE      CLEAR     26  18  71 NE3       30.37R
OAK RIDGE      CLEAR     25  20  81 CALM      30.39R
GATLINBURG     SUNNY     19  16  86 CALM      30.37R
MORRISTOWN     SUNNY     25  16  68 NE5       30.36S WCI  19
$$

TNZ083-085-099-291300-
SOUTHEAST TENNESSEE

CITY           SKY/WX    TMP DP  RH WIND       PRES   REMARKS
CHATTANOOGA    CLEAR     30  22  72 CALM      30.38R
$$

SKY/WX REPORTED AS FAIR MEANS FEW OR NO CLOUDS BELOW
12 THOUSAND FEET.




USA.gov is the U.S. government's official web portal to all federal, state and local government web resources and services.